TimeHST,TemperatureF,Dew PointF,Humidity,Sea Level PressureIn,VisibilityMPH,Wind Direction,Wind SpeedMPH,Gust SpeedMPH,PrecipitationIn,Events,Conditions,WindDirDegrees,DateUTC
12:53 AM,71.1,63.0,75,30.06,10.0,East,5.8,-,N/A,,Clear,90,2012-01-22 10:53:00
1:53 AM,70.0,62.1,76,30.04,10.0,East,4.6,-,N/A,,Clear,80,2012-01-22 11:53:00
2:53 AM,70.0,62.1,76,30.04,10.0,ESE,4.6,-,N/A,,Clear,110,2012-01-22 12:53:00
3:53 AM,72.0,63.0,73,30.04,10.0,Calm,Calm,-,N/A,,Mostly Cloudy,0,2012-01-22 13:53:00
4:53 AM,69.1,60.1,73,30.03,10.0,Calm,Calm,-,N/A,,Clear,0,2012-01-22 14:53:00
5:53 AM,70.0,57.9,65,30.01,10.0,SE,4.6,-,N/A,,Clear,140,2012-01-22 15:53:00
6:53 AM,69.1,57.9,68,30.00,10.0,SE,5.8,-,N/A,,Clear,130,2012-01-22 16:53:00
7:53 AM,71.1,57.9,63,30.03,10.0,NE,10.4,-,N/A,,Partly Cloudy,40,2012-01-22 17:53:00
8:53 AM,77.0,62.1,60,30.04,10.0,NNE,4.6,-,N/A,,Scattered Clouds,30,2012-01-22 18:53:00
9:53 AM,78.1,62.1,58,30.04,10.0,ESE,4.6,-,N/A,,Scattered Clouds,110,2012-01-22 19:53:00
10:53 AM,80.1,64.9,60,30.03,10.0,South,15.0,-,N/A,,Clear,180,2012-01-22 20:53:00
11:53 AM,80.1,64.0,58,30.00,10.0,SSW,16.1,-,N/A,,Clear,200,2012-01-22 21:53:00
12:53 PM,80.1,66.0,62,29.98,10.0,South,18.4,-,N/A,,Mostly Cloudy,180,2012-01-22 22:53:00
1:53 PM,81.0,64.9,58,29.95,10.0,SSE,16.1,-,N/A,,Partly Cloudy,160,2012-01-22 23:53:00
2:53 PM,81.0,64.0,56,29.94,10.0,SSE,15.0,-,N/A,,Clear,160,2012-01-23 00:53:00
3:53 PM,79.0,64.9,62,29.96,10.0,South,12.7,-,N/A,,Overcast,190,2012-01-23 01:53:00
4:53 PM,77.0,64.0,64,29.96,10.0,WSW,10.4,-,N/A,,Overcast,240,2012-01-23 02:53:00
5:53 PM,77.0,63.0,62,29.98,10.0,West,6.9,-,N/A,,Overcast,270,2012-01-23 03:53:00
6:53 PM,77.0,63.0,62,30.00,10.0,WNW,8.1,-,N/A,,Overcast,300,2012-01-23 04:53:00
7:53 PM,75.9,63.0,64,30.02,10.0,WNW,10.4,-,N/A,,Mostly Cloudy,300,2012-01-23 05:53:00
8:53 PM,77.0,62.1,60,30.04,10.0,NW,11.5,-,N/A,,Overcast,310,2012-01-23 06:53:00
9:53 PM,75.9,64.0,67,30.05,10.0,NNW,6.9,-,N/A,,Overcast,330,2012-01-23 07:53:00
10:53 PM,75.9,63.0,64,30.06,10.0,NW,5.8,-,N/A,,Mostly Cloudy,310,2012-01-23 08:53:00
11:53 PM,73.9,63.0,68,30.05,10.0,SE,5.8,-,N/A,,Clear,130,2012-01-23 09:53:00